Zurück zum Katalog

STARLINK-32108

AktivKommunikationVLEO
NORAD 59682·PAYLOAD·🇺🇸 United States

Gestartet May 8, 2024 von Cape Canaveral Space Force Station

Loading…

Nächste Überflüge (nächste 24 Stunden)

TLE

AktuellSource: CelesTrak SupGP

Epoche: Sep 14, 2026, 22:03 UTC

1 59682C 24086A   26257.91923611  .00036984  00000+0  13399-2 0  2577
2 59682  43.0032  74.8379 0001492 274.3911 322.5839 15.27552761    19

Verfolge STARLINK-32108 in Echtzeit mit AllMySat

Download on the App Store